| time (UTC) | temp F | wind direction | speed MPH | gust MPH | rain 1hr in | rain 24hr in | rain mn in | humidity % | barometer mb |
| 20260503225838 | 62 | 267 | 4.0 | 4.0 | 0.00 | 0.00 | 0.00 | 28 | 1015.5 |
| 20260503225334 | 62 | 250 | 3.0 | 6.0 | 0.00 | 0.00 | 0.00 | 30 | 1015.7 |
| 20260503224830 | 63 | 71 | 1.0 | 6.0 | 0.00 | 0.00 | 0.00 | 25 | 1015.5 |
| 20260503224327 | 63 | 88 | 0.0 | 1.0 | 0.00 | 0.00 | 0.00 | 27 | 1015.4 |
| 20260503223825 | 63 | 283 | 2.0 | 4.0 | 0.00 | 0.00 | 0.00 | 26 | 1015.4 |
| 20260503223323 | 63 | 314 | 2.0 | 3.0 | 0.00 | 0.00 | 0.00 | 26 | 1015.5 |
| 20260503222818 | 63 | 88 | 1.0 | 3.0 | 0.00 | 0.00 | 0.00 | 25 | 1015.4 |
| 20260503222317 | 64 | 119 | 2.0 | 4.0 | 0.00 | 0.00 | 0.00 | 25 | 1015.4 |
| 20260503221815 | 64 | 244 | 1.0 | 3.0 | 0.00 | 0.00 | 0.00 | 29 | 1015.2 |
| 20260503221313 | 63 | 304 | 0.0 | 3.0 | 0.00 | 0.00 | 0.00 | 26 | 1015.4 |
| 20260503220809 | 63 | 288 | 4.0 | 4.0 | 0.00 | 0.00 | 0.00 | 26 | 1015.3 |
| 20260503220306 | 63 | 308 | 3.0 | 4.0 | 0.00 | 0.00 | 0.00 | 27 | 1015.3 |
| 20260503215802 | 64 | 302 | 3.0 | 9.0 | 0.00 | 0.00 | 0.00 | 24 | 1015.3 |
| 20260503215259 | 64 | 248 | 3.0 | 4.0 | 0.00 | 0.00 | 0.00 | 29 | 1015.5 |
| 20260503214757 | 63 | 327 | 2.0 | 4.0 | 0.00 | 0.00 | 0.00 | 26 | 1015.4 |
| 20260503214254 | 62 | 57 | 1.0 | 8.0 | 0.00 | 0.00 | 0.00 | 27 | 1015.4 |
| 20260503213752 | 63 | 260 | 5.0 | 10.0 | 0.00 | 0.00 | 0.00 | 25 | 1015.7 |
| 20260503213249 | 63 | 128 | 3.0 | 6.0 | 0.00 | 0.00 | 0.00 | 24 | 1015.6 |
| 20260503212746 | 63 | 287 | 3.0 | 7.0 | 0.00 | 0.00 | 0.00 | 28 | 1015.5 |
| 20260503212244 | 63 | 280 | 7.0 | 8.0 | 0.00 | 0.00 | 0.00 | 27 | 1015.6 |
| 20260503211741 | 63 | 305 | 3.0 | 6.0 | 0.00 | 0.00 | 0.00 | 25 | 1015.7 |
| 20260503211237 | 62 | 74 | 1.0 | 2.0 | 0.00 | 0.00 | 0.00 | 28 | 1015.7 |
| 20260503210732 | 64 | 267 | 9.0 | 11.0 | 0.00 | 0.00 | 0.00 | 25 | 1015.7 |
| 20260503210230 | 64 | 301 | 4.0 | 6.0 | 0.00 | 0.00 | 0.00 | 28 | 1015.5 |
| 20260503205725 | 62 | 284 | 2.0 | 4.0 | 0.00 | 0.00 | 0.00 | 26 | 1015.7 |
| 20260503205222 | 63 | 332 | 7.0 | 10.0 | 0.00 | 0.00 | 0.00 | 26 | 1015.7 |
| 20260503204718 | 62 | 191 | 2.0 | 3.0 | 0.00 | 0.00 | 0.00 | 29 | 1015.7 |
| 20260503204216 | 62 | 273 | 8.0 | 15.0 | 0.00 | 0.00 | 0.00 | 26 | 1015.7 |
| 20260503203713 | 62 | 358 | 4.0 | 6.0 | 0.00 | 0.00 | 0.00 | 25 | 1015.8 |
| 20260503203211 | 62 | 287 | 4.0 | 6.0 | 0.00 | 0.00 | 0.00 | 25 | 1016.0 |
| 20260503202708 | 62 | 277 | 4.0 | 10.0 | 0.00 | 0.00 | 0.00 | 26 | 1015.9 |
| 20260503202206 | 61 | 199 | 7.0 | 9.0 | 0.00 | 0.00 | 0.00 | 30 | 1015.9 |
| 20260503201703 | 61 | 280 | 7.0 | 11.0 | 0.00 | 0.00 | 0.00 | 27 | 1015.9 |
| 20260503201200 | 61 | 294 | 6.0 | 9.0 | 0.00 | 0.00 | 0.00 | 28 | 1016.3 |
| 20260503200656 | 62 | 322 | 8.0 | 16.0 | 0.00 | 0.00 | 0.00 | 27 | 1016.2 |
| 20260503200153 | 63 | 309 | 4.0 | 6.0 | 0.00 | 0.00 | 0.00 | 29 | 1016.4 |
| 20260503195650 | 62 | 331 | 3.0 | 4.0 | 0.00 | 0.00 | 0.00 | 29 | 1016.3 |
| 20260503195147 | 62 | 3 | 1.0 | 2.0 | 0.00 | 0.00 | 0.00 | 25 | 1016.5 |
| 20260503194644 | 61 | 117 | 4.0 | 6.0 | 0.00 | 0.00 | 0.00 | 26 | 1016.5 |
| 20260503194139 | 61 | 292 | 3.0 | 10.0 | 0.00 | 0.00 | 0.00 | 29 | 1016.8 |
| 20260503193637 | 62 | 264 | 8.0 | 13.0 | 0.00 | 0.00 | 0.00 | 28 | 1016.7 |
| 20260503193132 | 62 | 315 | 4.0 | 9.0 | 0.00 | 0.00 | 0.00 | 24 | 1016.6 |
| 20260503192628 | 61 | 44 | 2.0 | 7.0 | 0.00 | 0.00 | 0.00 | 31 | 1016.7 |
| 20260503192124 | 60 | 305 | 6.0 | 11.0 | 0.00 | 0.00 | 0.00 | 28 | 1016.6 |
| 20260503191621 | 60 | 258 | 4.0 | 7.0 | 0.00 | 0.00 | 0.00 | 28 | 1016.8 |
| 20260503191118 | 60 | 247 | 8.0 | 11.0 | 0.00 | 0.00 | 0.00 | 29 | 1016.8 |
| 20260503190615 | 60 | 275 | 5.0 | 8.0 | 0.00 | 0.00 | 0.00 | 29 | 1016.8 |
| 20260503190112 | 60 | 278 | 5.0 | 8.0 | 0.00 | 0.00 | 0.00 | 29 | 1017.1 |
| 20260503185608 | 60 | 304 | 7.0 | 14.0 | 0.00 | 0.00 | 0.00 | 30 | 1017.0 |
| 20260503185108 | 59 | 153 | 2.0 | 7.0 | 0.00 | 0.00 | 0.00 | 30 | 1017.3 |
| 20260503184604 | 59 | 307 | 8.0 | 16.0 | 0.00 | 0.00 | 0.00 | 28 | 1017.2 |
| 20260503184100 | 59 | 264 | 6.0 | 9.0 | 0.00 | 0.00 | 0.00 | 33 | 1017.5 |
| 20260503183557 | 59 | 282 | 7.0 | 11.0 | 0.00 | 0.00 | 0.00 | 30 | 1017.3 |
| 20260503183054 | 59 | 280 | 4.0 | 6.0 | 0.00 | 0.00 | 0.00 | 31 | 1017.5 |
| 20260503182553 | 59 | 270 | 8.0 | 13.0 | 0.00 | 0.00 | 0.00 | 32 | 1017.5 |
| 20260503182050 | 59 | 0 | 2.0 | 8.0 | 0.00 | 0.00 | 0.00 | 29 | 1017.6 |
| 20260503181547 | 60 | 275 | 4.0 | 9.0 | 0.00 | 0.00 | 0.00 | 31 | 1017.6 |
| 20260503181043 | 59 | 285 | 2.0 | 6.0 | 0.00 | 0.00 | 0.00 | 34 | 1017.6 |
| 20260503180541 | 57 | 241 | 4.0 | 8.0 | 0.00 | 0.00 | 0.00 | 33 | 1017.7 |
| 20260503180038 | 58 | 284 | 12.0 | 17.0 | 0.00 | 0.00 | 0.00 | 32 | 1017.6 |
| 20260503175535 | 57 | 263 | 6.0 | 7.0 | 0.00 | 0.00 | 0.00 | 33 | 1017.6 |
| 20260503175033 | 57 | 271 | 6.0 | 9.0 | 0.00 | 0.00 | 0.00 | 31 | 1017.6 |
| 20260503174530 | 58 | 255 | 9.0 | 16.0 | 0.00 | 0.00 | 0.00 | 32 | 1017.7 |
| 20260503174026 | 57 | 304 | 6.0 | 10.0 | 0.00 | 0.00 | 0.00 | 33 | 1017.4 |
| 20260503173521 | 57 | 247 | 8.0 | 11.0 | 0.00 | 0.00 | 0.00 | 32 | 1017.8 |
| 20260503173017 | 57 | 269 | 10.0 | 15.0 | 0.00 | 0.00 | 0.00 | 33 | 1017.5 |
| 20260503172515 | 57 | 218 | 5.0 | 9.0 | 0.00 | 0.00 | 0.00 | 34 | 1017.7 |
| 20260503172012 | 57 | 278 | 5.0 | 7.0 | 0.00 | 0.00 | 0.00 | 34 | 1018.0 |
| 20260503171508 | 56 | 275 | 4.0 | 6.0 | 0.00 | 0.00 | 0.00 | 34 | 1017.8 |
| 20260503171006 | 55 | 254 | 8.0 | 14.0 | 0.00 | 0.00 | 0.00 | 32 | 1017.8 |
| 20260503170502 | 56 | 240 | 9.0 | 15.0 | 0.00 | 0.00 | 0.00 | 33 | 1018.1 |
| 20260503150855 | 51 | 254 | 7.0 | 13.0 | 0.00 | 0.00 | 0.00 | 40 | 1019.4 |
| 20260503150351 | 51 | 257 | 5.0 | 13.0 | 0.00 | 0.00 | 0.00 | 44 | 1019.4 |
| 20260503140315 | 49 | 288 | 4.0 | 8.0 | 0.00 | 0.00 | 0.00 | 42 | 1019.1 |
| 20260503131244 | 46 | 281 | 6.0 | 9.0 | 0.00 | 0.00 | 0.00 | 45 | 1019.1 |
| 20260503130742 | 46 | 185 | 4.0 | 4.0 | 0.00 | 0.00 | 0.00 | 45 | 1019.1 |
| 20260503130239 | 46 | 195 | 3.0 | 7.0 | 0.00 | 0.00 | 0.00 | 48 | 1019.1 |
| 20260503120205 | 45 | 82 | 1.0 | 2.0 | 0.00 | 0.00 | 0.00 | 48 | 1019.0 |
| 20260503110632 | 41 | 236 | 2.0 | 3.0 | 0.00 | 0.00 | 0.00 | 57 | 1018.6 |
| 20260503110130 | 40 | 11 | 0.0 | 1.0 | 0.00 | 0.00 | 0.00 | 62 | 1018.5 |
| 20260503081446 | 39 | 80 | 0.0 | 0.0 | 0.00 | 0.00 | 0.00 | 69 | 1016.5 |
| 20260503080943 | 40 | 80 | 0.0 | 0.0 | 0.00 | 0.00 | 0.00 | 69 | 1016.6 |
| 20260503080439 | 40 | 91 | 0.0 | 1.0 | 0.00 | 0.00 | 0.00 | 70 | 1016.4 |
| 20260503072916 | 41 | 82 | 2.0 | 2.0 | 0.00 | 0.00 | 0.00 | 69 | 1016.0 |
| 20260503072413 | 41 | 83 | 0.0 | 1.0 | 0.00 | 0.00 | 0.00 | 71 | 1016.0 |
| 20260503071909 | 41 | 66 | 0.0 | 2.0 | 0.00 | 0.00 | 0.00 | 71 | 1016.3 |
| 20260503071407 | 41 | 71 | 0.0 | 0.0 | 0.00 | 0.00 | 0.00 | 73 | 1016.0 |
| 20260503070902 | 41 | 71 | 0.0 | 0.0 | 0.00 | 0.00 | 0.00 | 71 | 1016.2 |
| 20260503070400 | 41 | 73 | 0.0 | 0.0 | 0.00 | 0.00 | 0.00 | 71 | 1015.9 |
| 20260503060326 | 41 | 91 | 1.0 | 1.0 | 0.00 | 0.00 | 0.00 | 73 | 1015.9 |
| 20260503054814 | 41 | 83 | 0.0 | 0.0 | 0.00 | 0.00 | 0.00 | 72 | 1015.8 |
| 20260503054310 | 41 | 83 | 1.0 | 2.0 | 0.00 | 0.00 | 0.00 | 74 | 1015.8 |
| 20260503053808 | 40 | 62 | 0.0 | 0.0 | 0.00 | 0.00 | 0.00 | 74 | 1015.7 |
| 20260503053306 | 40 | 62 | 0.0 | 0.0 | 0.00 | 0.00 | 0.00 | 74 | 1015.8 |
| 20260503052802 | 40 | 62 | 0.0 | 1.0 | 0.00 | 0.00 | 0.00 | 73 | 1015.9 |
| 20260503052259 | 41 | 62 | 0.0 | 1.0 | 0.00 | 0.00 | 0.00 | 72 | 1015.8 |
| 20260503051755 | 41 | 56 | 1.0 | 1.0 | 0.00 | 0.00 | 0.00 | 70 | 1016.0 |
| 20260503051252 | 41 | 68 | 0.0 | 0.0 | 0.00 | 0.00 | 0.00 | 70 | 1015.9 |
| 20260503050748 | 42 | 66 | 0.0 | 0.0 | 0.00 | 0.00 | 0.00 | 69 | 1015.7 |
| 20260503050244 | 42 | 68 | 0.0 | 1.0 | 0.00 | 0.00 | 0.00 | 68 | 1015.8 |
| 20260503045742 | 42 | 54 | 0.0 | 1.0 | 0.00 | 0.00 | 0.00 | 68 | 1015.9 |
| 20260503045240 | 42 | 43 | 1.0 | 2.0 | 0.00 | 0.00 | 0.00 | 67 | 1015.9 |
| 20260503044736 | 43 | 42 | 1.0 | 3.0 | 0.00 | 0.00 | 0.00 | 65 | 1016.0 |
| 20260503044233 | 43 | 63 | 1.0 | 2.0 | 0.00 | 0.00 | 0.00 | 64 | 1015.9 |
| 20260503043730 | 43 | 5 | 2.0 | 2.0 | 0.00 | 0.00 | 0.00 | 63 | 1015.9 |
| 20260503043227 | 44 | 357 | 2.0 | 4.0 | 0.00 | 0.00 | 0.00 | 60 | 1015.9 |
| 20260503042723 | 44 | 314 | 4.0 | 6.0 | 0.00 | 0.00 | 0.00 | 59 | 1015.9 |
| 20260503042220 | 44 | 307 | 3.0 | 7.0 | 0.00 | 0.00 | 0.00 | 58 | 1015.7 |
| 20260503041716 | 43 | 300 | 5.0 | 8.0 | 0.00 | 0.00 | 0.00 | 59 | 1015.8 |
| 20260503041214 | 42 | 311 | 3.0 | 4.0 | 0.00 | 0.00 | 0.00 | 60 | 1015.9 |
| 20260503040711 | 41 | 272 | 2.0 | 3.0 | 0.00 | 0.00 | 0.00 | 62 | 1015.8 |
| 20260503040209 | 43 | 252 | 3.0 | 3.0 | 0.00 | 0.00 | 0.00 | 61 | 1015.8 |
| 20260503035705 | 43 | 78 | 0.0 | 2.0 | 0.00 | 0.00 | 0.00 | 59 | 1015.8 |
| 20260503035203 | 43 | 77 | 0.0 | 3.0 | 0.00 | 0.00 | 0.00 | 58 | 1015.7 |
| 20260503034700 | 43 | 71 | 0.0 | 0.0 | 0.00 | 0.00 | 0.00 | 58 | 1015.6 |
| 20260503034157 | 43 | 61 | 1.0 | 1.0 | 0.00 | 0.00 | 0.00 | 57 | 1015.8 |
| 20260503033654 | 43 | 68 | 0.0 | 1.0 | 0.00 | 0.00 | 0.00 | 56 | 1015.7 |
| 20260503033152 | 44 | 73 | 1.0 | 1.0 | 0.00 | 0.00 | 0.00 | 56 | 1015.8 |
| 20260503032650 | 44 | 271 | 0.0 | 2.0 | 0.00 | 0.00 | 0.00 | 54 | 1015.7 |
| 20260503032148 | 45 | 75 | 0.0 | 0.0 | 0.00 | 0.00 | 0.00 | 54 | 1015.6 |
| 20260503031645 | 45 | 67 | 0.0 | 1.0 | 0.00 | 0.00 | 0.00 | 51 | 1015.6 |
| 20260503031143 | 45 | 74 | 0.0 | 2.0 | 0.00 | 0.00 | 0.00 | 51 | 1015.6 |
| 20260503030638 | 45 | 67 | 0.0 | 1.0 | 0.00 | 0.00 | 0.00 | 52 | 1015.6 |
| 20260503030136 | 46 | 72 | 0.0 | 1.0 | 0.00 | 0.00 | 0.00 | 49 | 1015.5 |
| 20260503025632 | 46 | 66 | 0.0 | 1.0 | 0.00 | 0.00 | 0.00 | 50 | 1015.6 |
| 20260503025130 | 46 | 55 | 0.0 | 1.0 | 0.00 | 0.00 | 0.00 | 48 | 1015.6 |
| 20260503024626 | 46 | 64 | 0.0 | 2.0 | 0.00 | 0.00 | 0.00 | 49 | 1015.5 |
| 20260503024123 | 47 | 71 | 0.0 | 0.0 | 0.00 | 0.00 | 0.00 | 48 | 1015.5 |
| 20260503023621 | 47 | 76 | 0.0 | 1.0 | 0.00 | 0.00 | 0.00 | 47 | 1015.4 |
| 20260503023118 | 47 | 61 | 1.0 | 2.0 | 0.00 | 0.00 | 0.00 | 47 | 1015.4 |
| 20260503022613 | 47 | 276 | 0.0 | 0.0 | 0.00 | 0.00 | 0.00 | 45 | 1015.7 |
| 20260503022108 | 48 | 279 | 3.0 | 4.0 | 0.00 | 0.00 | 0.00 | 45 | 1015.7 |
| 20260503021606 | 48 | 93 | 0.0 | 3.0 | 0.00 | 0.00 | 0.00 | 46 | 1015.4 |
| 20260503021102 | 48 | 46 | 0.0 | 4.0 | 0.00 | 0.00 | 0.00 | 44 | 1015.3 |
| 20260503020559 | 48 | 33 | 0.0 | 0.0 | 0.00 | 0.00 | 0.00 | 44 | 1015.4 |
| 20260503020056 | 48 | 336 | 0.0 | 1.0 | 0.00 | 0.00 | 0.00 | 43 | 1015.4 |
| 20260503015553 | 48 | 231 | 5.0 | 6.0 | 0.00 | 0.00 | 0.00 | 42 | 1015.4 |
| 20260503015050 | 48 | 22 | 1.0 | 2.0 | 0.00 | 0.00 | 0.00 | 43 | 1015.2 |
| 20260503014546 | 48 | 48 | 1.0 | 1.0 | 0.00 | 0.00 | 0.00 | 44 | 1015.4 |
| 20260503014044 | 49 | 28 | 1.0 | 3.0 | 0.00 | 0.00 | 0.00 | 43 | 1015.3 |
| 20260503013541 | 49 | 12 | 1.0 | 4.0 | 0.00 | 0.00 | 0.00 | 42 | 1015.2 |
| 20260503013039 | 49 | 341 | 3.0 | 6.0 | 0.00 | 0.00 | 0.00 | 42 | 1015.2 |
| 20260503012536 | 49 | 46 | 1.0 | 1.0 | 0.00 | 0.00 | 0.00 | 42 | 1015.2 |
| 20260503012032 | 49 | 255 | 7.0 | 8.0 | 0.00 | 0.00 | 0.00 | 42 | 1015.1 |
| 20260503011529 | 49 | 353 | 1.0 | 7.0 | 0.00 | 0.00 | 0.00 | 41 | 1015.3 |
| 20260503011026 | 49 | 254 | 7.0 | 8.0 | 0.00 | 0.00 | 0.00 | 41 | 1015.0 |
| 20260503010522 | 50 | 309 | 3.0 | 6.0 | 0.00 | 0.00 | 0.00 | 41 | 1015.1 |
| 20260503010020 | 49 | 277 | 7.0 | 10.0 | 0.00 | 0.00 | 0.00 | 40 | 1014.7 |
| 20260503005517 | 49 | 61 | 1.0 | 3.0 | 0.00 | 0.00 | 0.00 | 41 | 1015.0 |
| 20260503005015 | 49 | 50 | 1.0 | 2.0 | 0.00 | 0.00 | 0.00 | 41 | 1014.9 |
| 20260503004510 | 50 | 71 | 1.0 | 1.0 | 0.00 | 0.00 | 0.00 | 39 | 1014.6 |
| 20260503004009 | 50 | 86 | 0.0 | 3.0 | 0.00 | 0.00 | 0.00 | 40 | 1014.7 |
| 20260503003505 | 50 | 326 | 1.0 | 3.0 | 0.00 | 0.00 | 0.00 | 40 | 1014.6 |
| 20260503003002 | 50 | 272 | 4.0 | 6.0 | 0.00 | 0.00 | 0.00 | 38 | 1014.4 |
| 20260503002459 | 50 | 71 | 1.0 | 2.0 | 0.00 | 0.00 | 0.00 | 39 | 1014.4 |
| 20260503001955 | 50 | 77 | 1.0 | 3.0 | 0.00 | 0.00 | 0.00 | 38 | 1014.3 |
| 20260503001452 | 50 | 34 | 2.0 | 3.0 | 0.00 | 0.00 | 0.00 | 38 | 1014.3 |
| 20260503000949 | 50 | 334 | 2.0 | 4.0 | 0.00 | 0.00 | 0.00 | 37 | 1014.3 |
| 20260503000447 | 50 | 296 | 2.0 | 6.0 | 0.00 | 0.00 | 0.00 | 38 | 1014.1 |
| 20260502235944 | 50 | 251 | 3.0 | 6.0 | 0.00 | 0.00 | 0.00 | 39 | 1014.2 |
| 20260502235440 | 51 | 306 | 2.0 | 3.0 | 0.00 | 0.00 | 0.00 | 40 | 1014.1 |
| 20260502234938 | 51 | 15 | 1.0 | 1.0 | 0.00 | 0.00 | 0.00 | 41 | 1013.9 |
| 20260502234434 | 51 | 270 | 5.0 | 8.0 | 0.00 | 0.00 | 0.00 | 38 | 1013.9 |
| 20260502233932 | 52 | 278 | 6.0 | 8.0 | 0.00 | 0.00 | 0.00 | 37 | 1013.7 |
| 20260502233427 | 51 | 298 | 4.0 | 9.0 | 0.00 | 0.00 | 0.00 | 37 | 1013.6 |
| 20260502232924 | 51 | 304 | 9.0 | 10.0 | 0.00 | 0.00 | 0.00 | 37 | 1013.6 |
| 20260502232420 | 51 | 263 | 4.0 | 8.0 | 0.00 | 0.00 | 0.00 | 38 | 1013.5 |
| 20260502231918 | 52 | 311 | 8.0 | 11.0 | 0.00 | 0.00 | 0.00 | 36 | 1013.5 |
| 20260502231415 | 52 | 304 | 7.0 | 9.0 | 0.00 | 0.00 | 0.00 | 38 | 1013.5 |
| 20260502230913 | 52 | 275 | 7.0 | 11.0 | 0.00 | 0.00 | 0.00 | 36 | 1013.4 |
| 20260502230411 | 52 | 291 | 4.0 | 6.0 | 0.00 | 0.00 | 0.00 | 38 | 1013.5 |